1311206427454,122.821
1311206487454,122.719
1311206547454,122.691
1311206607454,122.744
1311206667454,122.670
1311206727454,122.772
1311206787454,122.844
1311206847454,122.837
1311206907454,122.843
1311206967454,122.643
1311207027454,122.809
1311207087454,122.745
1311207147454,122.659
1311207207454,122.772
1311207267454,122.813
1311207327454,122.909
1311207387454,122.386
1311207447454,122.697
1311207507454,122.883
1311207567454,122.803
1311207627454,122.625
1311207687454,122.863
1311207747454,122.746
1311207807454,122.892
1311207867454,122.919
1311207927454,122.876
1311207987454,122.863
1311208047454,122.869
1311208107454,122.969
1311208167454,122.718
1311208227454,122.594
1311208287454,122.805
1311208347454,122.761
1311208407454,122.776
1311208467454,122.757
1311208527454,122.725
1311208587454,122.925
1311208647454,122.697
1311208707454,122.654
1311208767454,122.817
1311208827454,122.955
1311208887454,122.466
1311208947454,122.828
1311209007454,122.796
1311209067454,122.863
1311209127454,122.849
1311209187454,122.945
1311209247454,122.636
1311209307454,122.773
1311209367454,122.863
1311209427454,122.990
1311209487454,122.817
1311209547454,122.762
1311209607454,122.668
1311209667454,122.847
1311209727454,123.028
1311209787454,122.745
1311209847454,122.871
1311209907454,122.606
1311209967454,122.710
1311210027464,122.728
1311210087464,122.858
1311210147464,122.828
1311210207464,122.874
1311210267464,122.901
1311210327464,122.811
1311210387464,122.930
1311210447464,122.725
1311210507464,122.772
1311210567464,122.857
1311210627464,122.523
1311210687464,122.914
1311210747464,122.548
1311210807464,122.701
1311210867464,122.805
1311210927464,122.799
1311210987464,122.562
1311211047464,122.548
1311211107464,122.425
1311211167464,122.494
1311211227464,122.855
1311211287464,122.328
1311211347464,122.615
1311211407464,122.773
1311211467464,122.508
1311211527464,122.385
1311211587464,122.647
1311211647464,122.283
1311211707464,122.542
1311211767464,122.328
1311211827464,122.509
1311211887464,122.409
1311211947464,122.479
1311212007464,122.569
1311212067464,122.537
1311212127464,122.532
1311212187464,122.487
1311212247464,122.621
1311212307464,122.625
1311212367464,122.666
1311212427464,122.464
1311212487464,122.676
1311212547464,122.574
1311212607464,122.616
1311212667464,122.434
1311212727464,122.505
1311212787464,122.808
1311212847464,122.458
1311212907464,122.323
1311212967464,122.689
1311213027464,122.559
1311213087464,122.774
1311213147464,122.609
1311213207464,122.488
1311213267464,122.639
1311213327464,122.644
1311213387464,122.720
1311213447464,122.574
1311213507464,122.654
1311213567464,122.598
1311213627474,122.725
1311213687474,122.534
1311213747474,122.801
1311213807474,122.567
1311213867474,122.887
1311213927474,122.457
1311213987474,122.873
1311214047474,122.653
1311214107474,122.550
1311214167474,122.428
1311214227474,122.245
1311214287474,122.517
1311214347474,122.501
1311214407474,122.451
1311214467474,122.554
1311214527474,122.320
1311214587473,122.533
1311214647473,122.506
1311214707473,122.261
1311214767473,122.517
1311214827473,122.544
1311214887474,122.298
1311214947474,122.576
1311215007474,121.986
1311215067474,122.509
1311215127474,122.291
1311215187474,122.258
1311215247474,122.162
1311215307474,122.363
1311215367474,122.198
1311215427474,121.941
1311215487474,122.065
1311215547474,122.370
1311215607474,122.196
1311215667474,122.152
1311215727474,122.307
1311215787474,122.026
1311215847474,122.333
1311215907473,122.089
1311215967473,122.347
1311216027473,122.445
1311216087473,121.961
1311216147473,121.993
1311216207473,122.239
1311216267474,122.031
1311216327474,122.043
1311216387474,122.330
1311216447474,122.138
1311216507474,122.016
1311216567474,122.034
1311216627474,122.359
1311216687474,121.946
1311216747474,122.086
1311216807474,122.025
1311216867474,122.349
1311216927474,122.222
1311216987474,122.285
1311217047474,122.272
1311217107474,121.860
1311217167474,122.101
1311217227483,122.014
1311217287483,122.172
1311217347483,122.026
1311217407483,122.212
1311217467483,122.141
1311217527483,122.005
1311217587483,122.137
1311217647483,122.069
1311217707483,122.554
1311217767483,122.148
1311217827483,122.119
1311217887483,122.293
1311217947483,121.666
1311218007483,122.203
1311218067483,122.349
1311218127483,122.028
1311218187483,122.132
1311218247483,121.977
1311218307483,122.254
1311218367483,122.058
1311218427483,122.091
1311218487483,122.192
1311218547483,121.998
1311218607483,122.124
1311218667483,122.307
1311218727483,121.883
1311218787483,122.177
1311218847483,121.815
1311218907483,121.921
1311218967483,122.174
1311219027483,121.762
1311219087483,121.729
1311219147483,121.814
1311219207483,121.951
1311219267483,121.879
1311219327483,121.855
1311219387483,122.055
1311219447483,122.167
1311219507483,122.340
1311219567483,122.163
1311219627483,122.072
1311219687483,121.793
1311219747483,122.207
1311219807483,122.271
1311219867483,122.086
1311219927483,122.243
1311219987483,122.092
1311220047483,122.016
1311220107483,122.350
1311220167483,122.060
1311220227483,122.209
1311220287483,122.196
1311220347483,122.070
1311220407483,122.065
1311220467483,122.182
1311220527483,122.211
1311220587483,121.983
1311220647483,122.279
1311220707483,122.186
1311220767483,122.092
1311220827492,121.934
1311220887492,122.181
1311220947492,122.109
1311221007492,122.299
1311221067492,122.030
1311221127492,122.138
1311221187492,122.289
1311221247492,122.046
1311221307492,122.193
1311221367492,122.187
1311221427492,122.088
1311221487492,122.240
1311221547492,121.987
1311221607492,121.889
1311221667492,122.019
1311221727492,121.872
1311221787492,122.032
1311221847492,121.969
1311221907492,121.891
1311221967492,122.044
1311222027492,121.794
1311222087492,121.702
1311222147492,122.020
1311222207492,121.845
1311222267492,121.816
1311222327492,121.911
1311222387492,121.830
1311222447492,121.961
1311222507492,121.818
1311222567492,122.354
1311222627492,121.880
1311222687492,122.151
1311222747492,121.676
1311222807492,121.876
1311222867492,121.605
1311222927492,121.601
1311222987492,121.876
1311223047492,121.703
1311223107492,121.986
1311223167492,121.794
1311223227492,121.899
1311223287492,121.741
1311223347492,121.719
1311223407492,121.807
1311223467492,121.851
1311223527492,121.605
1311223587492,121.741
1311223647492,121.958
1311223707492,121.717
1311223767492,121.795
1311223827492,121.811
1311223887492,121.737
1311223947492,122.077
1311224007492,121.889
1311224067492,121.668
1311224127492,121.854
1311224187492,121.643
1311224247492,121.471
1311224307492,121.654
1311224367492,121.862
1311224427501,121.938
1311224487501,121.990
1311224547501,121.919
1311224607501,121.905
1311224667501,121.756
1311224727501,121.749
1311224787501,121.665
1311224847501,121.573
1311224907501,121.897
1311224967501,121.668
1311225027501,121.672
1311225087501,121.330
1311225147501,121.791
1311225207501,121.619
1311225267501,121.672
1311225327501,121.688
1311225387501,121.599
1311225447501,121.893
1311225507501,121.709
1311225567501,121.558
1311225627501,121.442
1311225687501,121.799
1311225747501,121.412
1311225807501,121.394
1311225867501,121.441
1311225927501,121.551
1311225987501,121.501
1311226047501,121.355
1311226107501,121.470
1311226167501,121.539
1311226227501,121.258
1311226287501,121.227
1311226347501,121.321
1311226407501,121.162
1311226467501,121.315
1311226527501,121.448
1311226587501,121.333
1311226647501,121.405
1311226707501,121.286
1311226767501,121.133
1311226827501,121.188
1311226887501,121.299
1311226947501,121.279
1311227007501,121.067
1311227067501,121.398
1311227127501,121.437
1311227187501,121.152
1311227247501,121.449
1311227307501,121.128
1311227367501,121.430
1311227427501,121.299
1311227487501,120.850
1311227547501,121.043
1311227607501,121.092
1311227667501,121.079
1311227727501,121.325
1311227787501,121.176
1311227847501,121.115
1311227907501,121.221
1311227967501,121.340
1311228027510,121.160
1311228087510,120.924
1311228147510,121.350
1311228207510,120.895
1311228267510,121.178
1311228327510,121.011
1311228387510,121.152
1311228447510,121.106
1311228507510,121.041
1311228567510,121.075
1311228627510,121.294
1311228687510,121.376
1311228747510,121.018
1311228807510,121.201
1311228867510,120.975
1311228927510,120.959
1311228987510,121.078
1311229047510,120.947
1311229107510,120.908
1311229167510,120.914
1311229227510,120.939
1311229287510,120.814
1311229347510,121.030
1311229407510,120.717
1311229467510,120.864
1311229527510,121.037
1311229587510,122.050
1311229647510,120.959
1311229707510,120.622
1311229767510,120.769
1311229827510,120.842
1311229887510,120.842
1311229947510,120.872
1311230007510,120.666
1311230067510,120.722
1311230127510,120.835
1311230187510,120.685
1311230247510,120.732
1311230307510,120.831
1311230367510,120.956
1311230427510,120.731
1311230487510,120.987
1311230547510,120.957
1311230607510,120.946
1311230667510,120.945
1311230727510,121.190
1311230787510,121.240
1311230847510,121.274
1311230907510,120.924
1311230967510,120.957
1311231027510,121.124
1311231087510,121.104
1311231147510,120.936
1311231207510,120.814
1311231267510,121.219
1311231327510,121.233
1311231387510,121.288
1311231447510,121.060
1311231507510,120.989
1311231567510,121.088
1311231627519,120.947
1311231687519,120.806
1311231747519,121.063
1311231807519,120.953
1311231867519,120.882
1311231927519,121.081
1311231987519,120.732
1311232047519,120.935
1311232107519,120.792
1311232167519,120.426
1311232227519,120.729
1311232287519,120.854
1311232347519,120.829
1311232407519,120.639
1311232467519,120.320
1311232527519,121.088
1311232587519,120.972
1311232647519,120.734
1311232707519,120.535
1311232767519,120.792
1311232827519,120.751
1311232887519,120.693
1311232947519,120.828
1311233007519,120.698
1311233067519,120.644
1311233127519,120.650
1311233187519,120.801
1311233247519,120.615
1311233307519,120.417
1311233367519,120.615
1311233427519,120.758
1311233487519,120.416
1311233547519,120.479
1311233607519,120.477
1311233667519,120.469
1311233727519,120.664
1311233787519,120.487
1311233847519,120.493
1311233907519,120.419
1311233967519,120.620
1311234027519,120.550
1311234087519,120.489
1311234147519,120.502
1311234207519,120.503
1311234267519,120.687
1311234327519,120.388
1311234387519,120.373
1311234447519,120.301
1311234507519,120.354
1311234567519,120.487
1311234627519,120.725
1311234687519,120.468
1311234747519,120.527
1311234807519,120.649
1311234867519,120.456
1311234927519,120.486
1311234987519,120.703
1311235047519,120.511
1311235107519,120.379
1311235167519,120.378
1311235227528,120.734
1311235287528,120.450
1311235347528,120.650
1311235407528,120.599
1311235467528,120.520
1311235527528,120.514
1311235587528,120.670
1311235647528,120.950
1311235707528,120.891
1311235767528,121.020
1311235827528,120.971
1311235887528,120.943
1311235947528,120.747
1311236007528,120.775
1311236067528,120.943
1311236127528,120.793
1311236187528,120.807
1311236247528,120.819
1311236307528,121.033
1311236367528,121.086
1311236427528,120.912
1311236487528,120.978
1311236547528,121.033
1311236607528,121.133
1311236667528,120.823
1311236727528,121.015
1311236787528,120.812
1311236847528,120.802
1311236907528,121.057
1311236967528,121.020
1311237027528,121.018
1311237087528,121.039
1311237147528,121.178
1311237207528,121.171
1311237267528,120.881
1311237327528,120.934
1311237387528,120.852
1311237447528,121.208
1311237507528,121.026
1311237567528,121.035
1311237627528,120.958
1311237687528,121.207
1311237747528,121.280
1311237807528,120.941
1311237867528,121.247
1311237927528,121.217
1311237987528,121.092
1311238047528,121.128
1311238107528,121.207
1311238167528,121.277
1311238227528,121.243
1311238287528,121.286
1311238347528,121.170
1311238407528,121.305
1311238467528,121.068
1311238527528,121.016
1311238587528,121.443
1311238647528,121.178
1311238707528,120.994
1311238767528,121.260
1311238827537,121.388
1311238887537,121.118
1311238947537,121.368
1311239007537,121.184
1311239067537,120.891
1311239127537,120.940
1311239187537,120.831
1311239247537,121.054
1311239307537,121.027
1311239367537,120.960
1311239427537,121.003
1311239487537,120.756
1311239547537,121.093
1311239607537,121.008
1311239667537,121.013
1311239727537,121.122
1311239787537,120.979
1311239847537,121.238
1311239907537,121.083
1311239967537,121.054
1311240027537,121.063
1311240087537,120.874
1311240147537,120.903
1311240207537,121.453
1311240267537,121.255
1311240327537,120.852
1311240387537,120.981
1311240447537,121.175
1311240507537,120.949
1311240567537,120.973
1311240627537,121.105
1311240687537,120.985
1311240747537,120.903
1311240807537,121.001
1311240867537,120.858
1311240927537,120.793
1311240987537,120.595
1311241047537,121.039
1311241107537,120.728
1311241167537,120.998
1311241227537,121.010
1311241287537,121.040
1311241347537,120.986
1311241407537,120.879
1311241467537,120.950
1311241527537,121.040
1311241587537,120.755
1311241647537,120.741
1311241707537,121.081
1311241767537,120.864
1311241827537,121.062
1311241887537,120.901
1311241947537,121.118
1311242007537,121.065
1311242067537,121.308
1311242127537,120.859
1311242187537,121.055
1311242247537,120.984
1311242307537,121.185
1311242367537,121.034
1311242427546,121.053
1311242487546,121.398
1311242547546,121.250
1311242607546,121.268
1311242667546,121.114
1311242727546,121.214
1311242787546,121.107
1311242847546,121.312
1311242907546,121.128
1311242967546,120.912
1311243027546,121.001
1311243087546,120.927
1311243147546,121.115
1311243207546,121.019
1311243267546,121.131
1311243327546,121.191
1311243387546,120.897
1311243447546,120.949
1311243507546,121.070
1311243567546,121.322
1311243627546,121.011
1311243687546,120.905
1311243747546,121.083
1311243807546,121.001
1311243867546,121.032
1311243927546,121.009
1311243987546,121.041
1311244047546,121.122
1311244107546,121.305
1311244167546,121.248
1311244227546,121.006
1311244287546,120.903
1311244347546,121.273
1311244407546,120.934
1311244467546,121.061
1311244527546,120.867
1311244587546,121.090
1311244647546,120.953
1311244707546,121.276
1311244767546,120.865
1311244827546,120.987
1311244887546,120.763
1311244947546,121.114
1311245007546,120.860
1311245067546,121.109
1311245127546,120.829
1311245187546,120.899
1311245247546,121.000
1311245307546,121.111
1311245367546,121.130
1311245427546,121.129
1311245487546,120.868
1311245547546,121.063
1311245607546,120.938
1311245667546,121.161
1311245727546,121.070
1311245787546,120.871
1311245847546,120.872
1311245907546,121.162
1311245967546,120.705
1311246027555,120.913
1311246087555,121.091
1311246147555,120.947
1311246207555,120.953
1311246267555,120.806
1311246327555,120.821
1311246387555,120.945
1311246447555,120.766
1311246507555,120.707
1311246567555,120.839
1311246627555,120.639
1311246687555,120.797
1311246747555,120.672
1311246807555,120.879
1311246867555,120.711
1311246927555,120.726
1311246987555,120.864
1311247047555,120.509
1311247107555,120.815
1311247167555,120.612
1311247227555,120.857
1311247287555,120.688
1311247347555,120.788
1311247407555,120.859
1311247467555,120.796
1311247527555,120.820
1311247587555,120.693
1311247647555,120.726
1311247707555,120.873
1311247767555,120.752
1311247827555,120.608
1311247887555,120.539
1311247947555,120.932
1311248007555,120.601
1311248067555,120.803
1311248127555,120.413
1311248187555,120.723
1311248247555,120.552
1311248307555,120.645
1311248367555,120.707
1311248427555,120.745
1311248487555,120.555
1311248547555,120.550
1311248607555,120.743
1311248667555,120.493
1311248727555,120.667
1311248787555,120.652
1311248847555,120.552
1311248907555,120.651
1311248967555,120.542
1311249027555,120.448
1311249087555,120.594
1311249147555,120.501
1311249207555,120.648
1311249267555,120.641
1311249327555,120.567
1311249387555,120.456
1311249447555,120.369
1311249507555,120.438
1311249567555,120.510
1311249627564,120.478
1311249687564,120.170
1311249747564,120.417
1311249807564,120.361
1311249867564,120.572
1311249927564,120.522
1311249987564,120.488
1311250047564,120.142
1311250107564,120.482
1311250167564,120.184
1311250227564,120.474
1311250287564,120.334
1311250347564,120.230
1311250407564,120.256
1311250467564,120.422
1311250527564,120.496
1311250587564,120.167
1311250647564,120.254
1311250707564,120.067
1311250767564,120.423
1311250827564,120.244
1311250887564,120.393
1311250947564,120.247
1311251007564,120.259
1311251067564,120.254
1311251127564,120.316
1311251187564,120.121
1311251247564,120.226
1311251307564,120.164
1311251367564,120.158
1311251427564,120.006
1311251487564,120.415
1311251547564,120.026
1311251607564,119.840
1311251667564,120.209
1311251727564,119.981
1311251787564,120.086
1311251847564,120.122
1311251907564,120.365
1311251967564,119.940
1311252027564,120.134
1311252087564,120.237
1311252147564,120.390
1311252207564,120.247
1311252267564,120.116
1311252327564,120.217
1311252387564,120.114
1311252447564,120.215
1311252507564,120.057
1311252567564,120.385
1311252627564,119.873
1311252687564,120.084
1311252747564,119.932
1311252807564,119.951
1311252867564,120.223
1311252927564,120.212
1311252987564,119.867
1311253047564,120.042
1311253107564,120.152
1311253167564,120.041
1311253227573,120.150
1311253287573,120.379
1311253347573,120.285
1311253407573,120.200
1311253467573,119.862
1311253527573,120.082
1311253587573,119.843
1311253647573,119.966
1311253707573,119.866
1311253767573,120.240
1311253827573,119.857
1311253887573,120.194
1311253947573,120.208
1311254007573,119.986
1311254067573,119.698
1311254127573,120.025
1311254187573,119.790
1311254247573,119.956
1311254307573,120.064
1311254367573,119.888
1311254427573,120.151
1311254487573,120.072
1311254547573,119.842
1311254607573,120.018
1311254667573,120.143
1311254727573,120.188
1311254787573,120.176
1311254847573,119.688
1311254907573,119.832
1311254967573,119.994
1311255027573,119.887
1311255087573,119.721
1311255147573,119.650
1311255207573,119.765
1311255267573,119.743
1311255327573,119.600
1311255387573,119.658
1311255447573,119.769
1311255507573,119.581
1311255567573,119.220
1311255627573,119.526
1311255687573,119.548
1311255747573,119.374
1311255807573,119.413
1311255867573,119.608
1311255927573,119.396
1311255987573,119.581
1311256047573,119.666
1311256107573,119.341
1311256167573,119.195
1311256227573,119.186
1311256287573,119.337
1311256347573,119.080
1311256407573,119.206
1311256467573,119.118
1311256527573,119.070
1311256587573,118.936
1311256647573,119.068
1311256707573,119.154
1311256767573,119.122
1311256827582,119.265
1311256887582,118.865
1311256947582,118.888
1311257007582,119.112
1311257067582,118.825
1311257127582,118.989
1311257187582,118.980
1311257247582,119.029
1311257307582,118.953
1311257367582,118.916
1311257427582,119.131
1311257487582,119.288
1311257547582,118.870
1311257607582,118.772
1311257667582,119.238
1311257727582,119.104
1311257787582,118.834
1311257847582,118.971
1311257907582,119.001
1311257967582,119.004
1311258027582,118.839
1311258087582,119.022
1311258147582,118.980
1311258207582,118.938
1311258267582,118.904
1311258327582,118.929
1311258387582,119.128
1311258447582,118.728
1311258507582,118.946
1311258567582,118.884
1311258627582,118.851
1311258687582,118.906
1311258747582,119.121
1311258807582,118.791
1311258867582,118.567
1311258927582,119.051
1311258987582,119.071
1311259047582,118.966
1311259107582,119.124
1311259167582,118.969
1311259227582,119.105
1311259287582,118.855
1311259347582,118.865
1311259407582,119.200
1311259467582,119.117
1311259527582,119.316
1311259587582,119.075
1311259647582,119.074
1311259707582,118.930
1311259767582,119.255
1311259827582,119.327
1311259887582,119.161
1311259947582,119.129
1311260007582,119.185
1311260067582,119.430
1311260127582,119.234
1311260187582,119.365
1311260247582,119.490
1311260307582,119.268
1311260367582,119.143
1311260427592,119.663
1311260487592,119.325
1311260547592,119.590
1311260607592,119.560
1311260667592,119.442
1311260727592,119.480
1311260787592,119.611
1311260847592,119.318
1311260907592,119.574
1311260967592,119.648
1311261027592,119.666
1311261087592,119.444
1311261147592,119.514
1311261207592,119.815
1311261267592,119.481
1311261327592,119.772
1311261387592,119.638
1311261447592,119.494
1311261507592,119.471
1311261567592,119.471
1311261627592,119.523
1311261687592,119.665
1311261747592,119.401
1311261807592,119.332
1311261867592,119.591
1311261927592,119.448
1311261987592,119.690
1311262047592,119.727
1311262107592,119.534
1311262167592,119.350
1311262227592,119.623
1311262287592,119.659
1311262347592,119.647
1311262407592,119.409
1311262467592,119.683
1311262527592,119.316
1311262587592,119.808
1311262647592,119.254
1311262707592,119.558
1311262767592,119.550
1311262827592,119.683
1311262887592,119.727
1311262947592,119.803
1311263007592,119.735
1311263067592,119.622
1311263127592,119.804
1311263187592,119.864
1311263247592,119.675
1311263307592,119.765
1311263367592,119.844
1311263427592,119.726
1311263487592,119.999
1311263547592,119.917
1311263607592,119.760
1311263667592,120.072
1311263727592,119.714
1311263787592,119.983
1311263847592,119.900
1311263907592,120.088
1311263967592,119.794
1311264027602,120.028
1311264087602,119.964
1311264147602,119.952
1311264207602,119.969
1311264267602,120.311
1311264327602,120.484
1311264387602,120.285
1311264447602,119.909
1311264507602,120.117
1311264567602,120.195
1311264627602,120.412
1311264687602,120.650
1311264747602,120.176
1311264807602,120.435
1311264867602,120.446
1311264927602,120.249
1311264987602,120.413
1311265047602,120.203
1311265107602,120.279
1311265167602,120.723
1311265227602,120.531
1311265287602,120.597
1311265347602,120.454
1311265407602,120.570
1311265467602,120.552
1311265527602,120.466
1311265587602,120.437
1311265647602,120.577
1311265707602,120.637
1311265767602,120.758
1311265827602,120.805
1311265887602,120.714
1311265947602,120.574
1311266007602,120.700
1311266067602,120.622
1311266127602,120.624
1311266187602,120.577
1311266247602,120.744
1311266307602,120.786
1311266367602,120.721
1311266427602,120.722
1311266487602,120.849
1311266547602,120.703
1311266607602,120.690
1311266667602,120.910
1311266727602,120.913
1311266787602,120.705
1311266847602,120.710
1311266907602,121.050
1311266967602,120.817
1311267027602,120.579
1311267087602,120.987
1311267147602,120.948
1311267207602,120.952
1311267267602,120.805
1311267327602,120.963
1311267387602,120.672
1311267447602,120.859
1311267507602,120.836
1311267567602,120.949
1311267627612,120.983
1311267687612,120.743
1311267747612,120.643
1311267807612,120.860
1311267867612,120.638
1311267927612,120.898
1311267987612,120.592
1311268047612,120.762
1311268107612,120.899
1311268167612,120.700
1311268227612,120.747
1311268287612,120.697
1311268347612,120.672
1311268407612,120.511
1311268467612,120.604
1311268527612,120.492
1311268587612,120.861
1311268647612,120.681
1311268707612,120.758
1311268767612,120.523
1311268827612,120.748
1311268887612,120.654
1311268947612,120.797
1311269007612,120.547
1311269067612,120.625
1311269127612,120.961
1311269187612,120.582
1311269247612,120.336
1311269307612,120.579
1311269367612,120.597
1311269427612,120.556
1311269487612,120.656
1311269547612,120.776
1311269607612,120.319
1311269667612,120.579
1311269727612,120.423
1311269787612,120.578
1311269847612,120.633
1311269907612,120.715
1311269967612,120.314
1311270027612,120.538
1311270087612,120.510
1311270147612,120.365
1311270207612,120.496
1311270267612,120.507
1311270327612,120.625
1311270387612,120.787
1311270447612,120.296
1311270507612,120.099
1311270567612,120.228
1311270627612,120.605
1311270687612,120.296
1311270747612,120.326
1311270807612,120.406
1311270867612,120.605
1311270927612,120.304
1311270987612,120.427
1311271047612,120.284
1311271107612,120.088
1311271167612,120.298
1311271227622,120.378
1311271287622,120.156
1311271347622,120.241
1311271407622,120.275
1311271467622,120.346
1311271527622,120.336
1311271587622,120.385
1311271647622,120.472
1311271707622,120.162
1311271767622,120.509